Location: Acton
(51.4942°N, 0.2232°W)
Time: 11:40:33
(UTC+00:00)

Cosmos 1975 Rocket - Visible Passes

Search period start: 18 January 2021 00:00
Search period end: 28 January 2021 00:00
Orbit: 602 x 635 km, 82.5° (Epoch: 17 January)

Date Brightness Start Highest point End Pass type
(mag) Time Alt. Az. Time Alt. Az. Time Alt. Az.
18 Jan 5.6 17:53:19 10° WSW 17:56:31 20° WNW 17:59:44 10° NNW visible
19 Jan 5.9 18:12:12 10° W 18:14:05 12° WNW 18:15:59 10° NNW visible
21 Jan 4.9 17:06:19 10° SW 17:10:10 30° WNW 17:14:01 10° N visible
22 Jan 5.6 17:24:31 10° WSW 17:27:39 19° WNW 17:30:47 10° NNW visible
23 Jan 5.9 17:43:30 10° W 17:45:14 12° WNW 17:46:57 10° NW visible
27 Jan 5.8 17:14:49 10° W 17:16:22 12° WNW 17:17:55 10° NW visible
